Regional Weather Roundup
Issued by NWS Sioux Falls, SD

Home | Current Version | Previous Version | Text Only | Print | Product List | Glossary On
Versions: 1 2 3 4 5 6 7 8 9 10 11 12 13 14 15 16 17 18 19 20 21 22 23 24 25 26 27 28 29 30 31 32 33 34 35 36 37 38 39 40 41 42 43 44 45 46 47 48 49 50
377
ASUS43 KFSD 290702
RWRFSD

WEATHER ROUNDUP FOR SE SOUTH DAKOTA/SW MINNESOTA/NW IOWA
NATIONAL WEATHER SERVICE SIOUX FALLS SD
200 AM CDT SUN MAY 29 2016

NOTE: "FAIR" INDICATES FEW OR NO CLOUDS BELOW 12,000 FEET WITH NO
SIGNIFICANT WEATHER AND OR OBSTRUCTIONS TO VISIBILITY.


SDZ038>040-050-052>070-290800-
SOUTHEAST SOUTH DAKOTA

CITY           SKY/WX    TMP DP  RH WIND       PRES   REMARKS
BROOKINGS      CLOUDY    55  54  96 W5        29.93S
CHAMBERLAIN    NOT AVBL
HURON          CLOUDY    60  56  86 SW7       29.93F
MADISON        FAIR      55  55 100 W8        29.95S
MITCHELL       CLOUDY    61  58  90 SW6       29.95S
SIOUX FALLS    CLEAR     57  55  93 SW3       29.95R
WINNER         FAIR      59  54  83 W8        30.00R
YANKTON        PTCLDY    57  54  88 SW5       29.96S
$$

MNZ071-072-080-081-089-090-097-098-290800-
SOUTHWEST MINNESOTA

CITY           SKY/WX    TMP DP  RH WIND       PRES   REMARKS
FAIRMONT       CLOUDY    61  54  77 W9        29.90R
JACKSON        CLEAR     59  55  88 W8        29.92R
LUVERNE        PTCLDY    55  54  94 W8        29.95S
MARSHALL       CLOUDY    60  58  92 W10       29.90S
MONTEVIDEO     MOCLDY    61  59  94 NW3       29.90S
PIPESTONE      CLOUDY    59  57  94 W6        29.94S FOG
REDWOOD FALLS  CLOUDY    62  58  86 W9        29.88R
TRACY          PTCLDY    61  59  92 W8        29.91R
WINDOM         CLEAR     59  55  88 CALM      29.91S
WORTHINGTON    PTCLDY    59  57  93 W12       29.94R
$$

IAZ001>003-012>014-020>022-031-032-NEZ013-014-SDZ071-290800-
NORTHWEST IOWA

CITY           SKY/WX    TMP DP  RH WIND       PRES   REMARKS
ESTHERVILLE    PTCLDY    59  58  96 W8        29.91S
SIOUX CITY     CLEAR     57  55  93 W5        29.97S
SPENCER        PTCLDY    60  57  89 W9        29.93R
STORM LAKE     CLOUDY    61  59  94 W15       29.96R
$$

ABBREVIATIONS USED IN REMARKS
   TC - TEMPERATURE IN CELSIUS
  WCI - WIND CHILL INDEX
   HX - HEAT INDEX
  VSB - VISIBILITY





USA.gov is the U.S. government's official web portal to all federal, state and local government web resources and services.